Regional Weather Roundup
Issued by NWS

Home | Current Version | Previous Version | Text Only | Print | Product List | Glossary On
Versions: 1 2 3 4 5 6 7 8 9 10 11 12 13 14 15 16 17 18 19 20 21 22 23 24 25 26 27 28 29 30 31 32 33 34 35 36 37 38 39 40 41 42 43 44 45 46 47 48 49 50
000
ASUS44 KJAN 290820
RWRMS

MISSISSIPPI HOURLY WEATHER ROUNDUP
NATIONAL WEATHER SERVICE JACKSON MS
300 AM CDT FRI JUL 29 2016

NOTE: "FAIR: INDICATES FEW OR NO CLOUDS BELOW 12,000 FEET WITH NO
SIGNIFICANT WEATHER AND/OR OBSTRUCTIONS TO VISIBILITY.

MSZ001>002-007>008-010>013-018>021-025>028-034>036-290900-
NORTHWEST MISSISSIPPI

CITY           SKY/WX    TMP DP  RH WIND       PRES   REMARKS
CLEVELAND      FAIR      74  74 100 SW6       29.98S
GREENWOOD      CLOUDY    74  71  91 S5        29.99S
GREENVILLE     CLOUDY    76  71  85 SW10      29.99S
OXFORD         MOCLDY    73  72  94 SW5       30.00S
WINONA         CLOUDY    72  72  99 CALM      30.00S
$$

MSZ003>006-009-014>017-022>024-029>033-037>039-290900-
NORTHEAST MISSISSIPPI

CITY           SKY/WX    TMP DP  RH WIND       PRES   REMARKS
ABERDEEN       FAIR      75  57  53 SW3       30.00F
COLUMBUS AFB   CLOUDY    74  74  99 S5        29.98F
GOLDN TRIANGLE CLOUDY    73  68  83 S3        29.99F
TUPELO         CLOUDY    75  71  87 S6        29.98F
$$

MSZ040-058-290900-
CENTRAL MISSISSIPPI

CITY           SKY/WX    TMP DP  RH WIND       PRES   REMARKS
JACKSON INTL   PTCLDY    73  71  93 S3        30.01S
JACKSON HAWKNS CLOUDY    73  72  96 CALM      30.02S
MADISON        PTSUNNY   72  72 100 CALM      30.02S
MERIDIAN KEY   PTCLDY    74  71  91 S6        30.03R
MERIDIAN NAS   PTCLDY    75  69  81 W3        30.02S
VICKSBURG VKS  MOSUNNY   73  73 100 CALM      30.01F
$$

MSZ059>079-290900-
SOUTH MISSISSIPPI

CITY           SKY/WX    TMP DP  RH WIND       PRES   REMARKS
BROOKHAVEN     FAIR     N/A N/A N/A S3        30.04S HAZE
COLUMBIA       PTSUNNY   72  72 100 CALM      30.06F
HATTIESBURG    PTCLDY    73  71  93 CALM      30.04R
MCCOMB         CLOUDY    71  70  96 CALM      30.04S
NATCHEZ        PTCLDY    72  70  94 CALM      30.02S
PINE BELT      CLEAR     72  68  88 CALM      30.04S
$$

MSZ080>082-290900-
COASTAL MISSISSIPPI

CITY           SKY/WX    TMP DP  RH WIND       PRES   REMARKS
BILOXI         MOCLDY    79  77  94 NE1       30.01S
PASCAGOULA     PTCLDY    75  75 100 CALM      30.02S
GULFPORT       PTCLDY    76  73  91 CALM      30.01S
$$

LAZ007>009-015>016-023>026-290900-
NORTHEAST LOUISIANA

CITY           SKY/WX    TMP DP  RH WIND       PRES   REMARKS
BASTROP        PTSUNNY   73  72  98 SW3       30.02R
TALLULAH/VBURG CLOUDY    73  71  93 CALM      30.00F FOG
VIDALIA        FAIR      72  72  99 CALM      30.04S
$$




USA.gov is the U.S. government's official web portal to all federal, state and local government web resources and services.